�N����,����,�g�[���i���ԁj���x,�g�[�����x,��g�[���i���ցj���x,����
 2003/07/01, 0:00,26,66,24.4,22.5
 2003/07/01, 0:15,25.9,68,24.5,22.5
 2003/07/01, 0:30,25.8,68,24.6,22.5
 2003/07/01, 0:45,25.6,69,24.6,22.6
 2003/07/01, 1:00,25.8,69,24.5,22.6
 2003/07/01, 1:15,25.6,69.5,24.5,22.6
 2003/07/01, 1:30,25.5,70,24.5,22.6
 2003/07/01, 1:45,25.4,70,24.4,22.6
 2003/07/01, 2:00,25.4,70,24.4,22.7
 2003/07/01, 2:15,25.3,70,24.4,22.7
 2003/07/01, 2:30,25.2,71,24.3,22.7
 2003/07/01, 2:45,25.2,71,24.3,22.7
 2003/07/01, 3:00,25.2,71,24.3,22.7
 2003/07/01, 3:15,25.1,71,24.2,22.8
 2003/07/01, 3:30,25,71,24.1,22.8
 2003/07/01, 3:45,25,71.5,24.1,22.8
 2003/07/01, 4:00,24.9,72,24.1,22.8
 2003/07/01, 4:15,24.9,72,24,22.8
 2003/07/01, 4:30,24.8,72,24,22.9
 2003/07/01, 4:45,24.8,73,24,22.9
 2003/07/01, 5:00,24.7,73,23.9,22.9
 2003/07/01, 5:15,24.7,73,23.9,22.9
 2003/07/01, 5:30,24.7,73,23.8,22.9
 2003/07/01, 5:45,24.6,73.5,23.8,22.9
 2003/07/01, 6:00,24.6,73,23.9,22.9
 2003/07/01, 6:15,24.8,73,24,22.9
 2003/07/01, 6:30,24.6,73,23.9,22.9
 2003/07/01, 6:45,24.6,74.5,23.8,22.9
 2003/07/01, 7:00,24.7,74,23.9,22.3
 2003/07/01, 7:15,24.4,74,23.6,22.2
 2003/07/01, 7:30,24.3,74,23.4,22.2
 2003/07/01, 7:45,24.5,75,23.4,22.3
 2003/07/01, 8:00,24.4,76,23.4,22.4
 2003/07/01, 8:15,24.3,78,23.2,22.4
 2003/07/01, 8:30,24.4,79,23.3,22.4
 2003/07/01, 8:45,24.4,79,23.4,22.4
 2003/07/01, 9:00,24.4,79,23.4,22.4
 2003/07/01, 9:15,24.4,78.5,23.5,22.4
 2003/07/01, 9:30,24.5,79,23.5,22.4
 2003/07/01, 9:45,24.5,78.5,23.2,22.4
 2003/07/01,10:00,24.3,78,23,22.5
 2003/07/01,10:15,24.3,78.5,22.8,22.5
 2003/07/01,10:30,24.4,79,23.4,22.5
 2003/07/01,10:45,24.5,80,23.5,22.5
 2003/07/01,11:00,24.4,80,23.5,22.5
 2003/07/01,11:15,24.3,80,23.5,22.7
 2003/07/01,11:30,24.6,81,23.7,22.7
 2003/07/01,11:45,24.6,79.5,23.8,22.6
 2003/07/01,12:00,24.6,79,23.7,22.5
 2003/07/01,12:15,24.5,78.5,23.6,22.5
 2003/07/01,12:30,24.7,78,23.5,22.5
 2003/07/01,12:45,24.6,78.5,23.5,22.5
 2003/07/01,13:00,24.6,79,23.6,22.6
 2003/07/01,13:15,24.6,78.5,23.5,22.6
 2003/07/01,13:30,24.5,79,23.5,22.6
 2003/07/01,13:45,24.5,79,23.5,22.6
 2003/07/01,14:00,24.5,79,23.5,22.6
 2003/07/01,14:15,24.4,80,23,22.6
 2003/07/01,14:30,24.2,80,22.1,22.6
 2003/07/01,14:45,24.2,79.5,21.8,22.6
 2003/07/01,15:00,24.1,80,21.7,22.6
 2003/07/01,15:15,24,80,21.5,22.6
 2003/07/01,15:30,24.1,80,21.7,22.6
 2003/07/01,15:45,24.2,78,22.4,22.6
 2003/07/01,16:00,24.1,79,22.5,22.7
 2003/07/01,16:15,24,79,22.6,22.6
 2003/07/01,16:30,24.1,78,22.5,22.6
 2003/07/01,16:45,23.9,77,22.4,22.3
 2003/07/01,17:00,23.6,77,22.3,22.3
 2003/07/01,17:15,23.6,78,22.2,22.3
 2003/07/01,17:30,23.7,77,22.1,22.3
 2003/07/01,17:45,23.3,77.5,22,22.3
 2003/07/01,18:00,23,78,21.8,22.5
 2003/07/01,18:15,22.6,78,21.5,22.5
 2003/07/01,18:30,22.5,79,21.5,22.5
 2003/07/01,18:45,22.6,77.5,21.2,22.5
 2003/07/01,19:00,22.8,77,21.3,22.5
 2003/07/01,19:15,22.7,78,21.2,22.5
 2003/07/01,19:30,22.7,78,21.2,22.5
 2003/07/01,19:45,22.7,78,21,22.4
 2003/07/01,20:00,22.6,78,20.9,22.3
 2003/07/01,20:15,22.5,78,20.9,22.1
 2003/07/01,20:30,22.6,78,20.9,22.2
 2003/07/01,20:45,22.6,78,20.9,22.2
 2003/07/01,21:00,22.6,79,20.9,22.2
 2003/07/01,21:15,22.6,79,21.1,22.2
 2003/07/01,21:30,22.7,79,21,22.2
 2003/07/01,21:45,22.7,79,21.1,22.2
 2003/07/01,22:00,22.7,79,21.1,22.3
 2003/07/01,22:15,22.6,78.5,21.1,22.3
 2003/07/01,22:30,22.7,78,21.3,22
 2003/07/01,22:45,22.8,78,21.4,22.1
 2003/07/01,23:00,23.2,77,21.5,22.1
 2003/07/01,23:15,23.1,76.5,21.5,22.1
 2003/07/01,23:30,23,77,21.5,22.3
 2003/07/01,23:45,22.9,77,21.5,22.3
 2003/07/02, 0:00,22.7,77,21.5,22.3
 2003/07/02, 0:15,22.7,77,21.5,22.3
 2003/07/02, 0:30,22.7,78,21.5,22.2
 2003/07/02, 0:45,22.6,78,21.5,22.2
 2003/07/02, 1:00,22.5,78,21.5,22.2
 2003/07/02, 1:15,22.5,78,21.5,22.2
 2003/07/02, 1:30,22.4,78,21.5,22.2
 2003/07/02, 1:45,22.4,79,21.4,22.2
 2003/07/02, 2:00,22.4,78,21.4,22
 2003/07/02, 2:15,22.4,78.5,21.4,22.1
 2003/07/02, 2:30,22.3,79,21.4,22
 2003/07/02, 2:45,22.2,79,21.3,22
 2003/07/02, 3:00,22.2,78,21.3,22.1
 2003/07/02, 3:15,22.1,78,21.2,22
 2003/07/02, 3:30,22.1,78,21.2,22
 2003/07/02, 3:45,22,78,21.2,22
 2003/07/02, 4:00,21.9,77,21.1,22
 2003/07/02, 4:15,21.9,77.5,21,22
 2003/07/02, 4:30,21.8,78,21.1,22
 2003/07/02, 4:45,21.8,78,21,22
 2003/07/02, 5:00,21.8,78,21,22
 2003/07/02, 5:15,21.8,78,21,22
 2003/07/02, 5:30,21.7,78,21,22
 2003/07/02, 5:45,21.8,78.5,21.4,22
 2003/07/02, 6:00,21.8,79,21.8,22
 2003/07/02, 6:15,22,78,22.2,21.9
 2003/07/02, 6:30,22.1,78,22.7,21.9
 2003/07/02, 6:45,22.2,78.5,23,21.9
 2003/07/02, 7:00,22.6,78,23.5,21.7
 2003/07/02, 7:15,22.4,78,23.7,22.1
 2003/07/02, 7:30,22.4,77,23.8,22.2
 2003/07/02, 7:45,22.5,77.5,23.6,22.2
 2003/07/02, 8:00,22.6,79,23.5,22.1
 2003/07/02, 8:15,22.6,77,23.5,22.2
 2003/07/02, 8:30,22.8,75,23.5,22.2
 2003/07/02, 8:45,22.9,74.5,23.5,22.2
 2003/07/02, 9:00,23.1,74,24.4,22.2
 2003/07/02, 9:15,23.4,67.5,24.5,22.2
 2003/07/02, 9:30,23.6,65,24.5,22.2
 2003/07/02, 9:45,23.8,66.5,24.5,22.2
 2003/07/02,10:00,23.9,68,24.3,22.2
 2003/07/02,10:15,23.9,65,24.6,22.2
 2003/07/02,10:30,24.2,64,25,22.3
 2003/07/02,10:45,24.4,62,25.2,22.3
 2003/07/02,11:00,24.5,63,25.2,22.3
 2003/07/02,11:15,24.4,62.5,24.9,22.3
 2003/07/02,11:30,24.5,62,25.2,22.3
 2003/07/02,11:45,24.6,61.5,25.2,22.3
 2003/07/02,12:00,24.7,63,25.6,22.4
 2003/07/02,12:15,25,60.5,25.2,22.4
 2003/07/02,12:30,25,58,25.2,22.4
 2003/07/02,12:45,25.2,58.5,25.5,22.4
 2003/07/02,13:00,25.5,56,25.6,22.4
 2003/07/02,13:15,25.6,57.5,26.2,22.4
 2003/07/02,13:30,26,56,26.3,22.4
 2003/07/02,13:45,25.9,55,26.5,22.5
 2003/07/02,14:00,25.9,54,26.5,22.5
 2003/07/02,14:15,26,54.5,26.2,22.5
 2003/07/02,14:30,26.2,55,25.5,22.5
 2003/07/02,14:45,26,56,25.4,22.6
 2003/07/02,15:00,26,56,25.2,22.5
 2003/07/02,15:15,26,55.5,25.2,22.5
 2003/07/02,15:30,26.2,55,25.3,22.6
 2003/07/02,15:45,26.3,55.5,25.4,22.6
 2003/07/02,16:00,26.4,56,25.4,22.5
 2003/07/02,16:15,26.5,56,25.5,22.5
 2003/07/02,16:30,26.6,54,26.5,22.6
 2003/07/02,16:45,26.5,55,26.4,22.6
 2003/07/02,17:00,26.3,54,26.2,22.6
 2003/07/02,17:15,26.2,54.5,26.1,22.6
 2003/07/02,17:30,26.1,53,26,22.7
 2003/07/02,17:45,26,53,25.8,22.4
 2003/07/02,18:00,25.8,53,25.6,22.4
 2003/07/02,18:15,25.6,54,25.4,22.4
 2003/07/02,18:30,25.5,56,25.1,22.4
 2003/07/02,18:45,25.4,57.5,24.8,22.4
 2003/07/02,19:00,25.2,58,24.9,22.3
 2003/07/02,19:15,25.1,59,24.3,22.3
 2003/07/02,19:30,25,59,24.3,22.3
 2003/07/02,19:45,24.9,60,24,22.4
 2003/07/02,20:00,25.2,60,24.3,22.4
 2003/07/02,20:15,24.9,59,23.5,22.5
 2003/07/02,20:30,24.7,59,23.7,22.4
 2003/07/02,20:45,24.7,58.5,23.5,22.4
 2003/07/02,21:00,24.5,59,23.3,22.4
 2003/07/02,21:15,24.5,60,23.3,22.4
 2003/07/02,21:30,24.4,61,23.1,22.4
 2003/07/02,21:45,24.2,61.5,23,22.4
 2003/07/02,22:00,24.1,62,22.6,22.4
 2003/07/02,22:15,24,62.5,22.4,22.1
 2003/07/02,22:30,23.9,64,22,22.2
 2003/07/02,22:45,23.7,64,22,22.3
 2003/07/02,23:00,23.6,65,21.1,22.3
 2003/07/02,23:15,23.6,66,20.5,22.3
 2003/07/02,23:30,23.8,66,20.5,22.3
 2003/07/02,23:45,23.6,66,21.4,22.3
 2003/07/03, 0:00,23.4,66,21.9,22.3
 2003/07/03, 0:15,23.5,66,22,22.3
 2003/07/03, 0:30,23.3,66,22.1,22.2
 2003/07/03, 0:45,23.2,66.5,22.1,22.2
 2003/07/03, 1:00,23.1,67,22.2,22.2
 2003/07/03, 1:15,23,67,22.1,22.2
 2003/07/03, 1:30,23,67,22.1,22.2
 2003/07/03, 1:45,22.6,67.5,22,22.2
 2003/07/03, 2:00,22.7,68,21.9,22
 2003/07/03, 2:15,22.6,68.5,21.9,22
 2003/07/03, 2:30,22.5,69,21.8,22
 2003/07/03, 2:45,22.5,69,21.8,22
 2003/07/03, 3:00,22.4,69,21.7,22
 2003/07/03, 3:15,22.3,69,21.6,22
 2003/07/03, 3:30,22.1,69,21.6,21.9
 2003/07/03, 3:45,22.1,70,21.5,21.9
 2003/07/03, 4:00,22.1,70,21.5,21.9
 2003/07/03, 4:15,22,70,21.5,21.9
 2003/07/03, 4:30,22,70,21.5,21.9
 2003/07/03, 4:45,22,70,21.4,21.9
 2003/07/03, 5:00,21.8,71,21.3,21.9
 2003/07/03, 5:15,21.8,70,21.2,21.8
 2003/07/03, 5:30,21.7,70,21.3,21.8
 2003/07/03, 5:45,21.8,71,21.2,21.8
 2003/07/03, 6:00,21.7,71,21.4,21.6
 2003/07/03, 6:15,21.6,71,21.5,21.7
 2003/07/03, 6:30,21.8,70,21.9,21.7
 2003/07/03, 6:45,21.9,70,22.5,21.7
 2003/07/03, 7:00,21.9,70,22.4,21.7
 2003/07/03, 7:15,21.9,73,22.2,21.8
 2003/07/03, 7:30,21.8,74,22.1,21.8
 2003/07/03, 7:45,22,74,22.1,22.1
 2003/07/03, 8:00,22,74,21.9,22
 2003/07/03, 8:15,22.1,74,21.9,22.1
 2003/07/03, 8:30,22.1,75,21.9,22.1
 2003/07/03, 8:45,22.4,74.5,22,22.1
 2003/07/03, 9:00,22.4,74,22,22.2
 2003/07/03, 9:15,22.5,74,22.2,22.1
 2003/07/03, 9:30,22.6,74,22.3,22.3
 2003/07/03, 9:45,22.8,74.5,22.4,22.3
 2003/07/03,10:00,23,78,22.5,22.3
 2003/07/03,10:15,23,76.5,22.5,22.3
 2003/07/03,10:30,23.1,76,22.6,22.3
 2003/07/03,10:45,23.4,75,22.6,22.3
 2003/07/03,11:00,23.4,75,22.6,22.3
 2003/07/03,11:15,23.4,76,22.7,22.3
 2003/07/03,11:30,23.4,78,22.7,22.3
 2003/07/03,11:45,23.4,79,22.8,22.3
 2003/07/03,12:00,23.4,80,22.6,22.3
 2003/07/03,12:15,23.5,79,22.6,22.3
 2003/07/03,12:30,23.6,80,22.7,22.2
 2003/07/03,12:45,23.7,80,22.7,22.2
 2003/07/03,13:00,23.6,79,22.6,22.3
 2003/07/03,13:15,23.6,80.5,22.8,22.3
 2003/07/03,13:30,23.7,81,22.5,22.3
 2003/07/03,13:45,23.6,82,22.5,22.3
 2003/07/03,14:00,23.7,82,22.7,22.3
 2003/07/03,14:15,23.6,83,22.7,22.4
 2003/07/03,14:30,23.7,85,22.8,22.4
 2003/07/03,14:45,23.5,84.5,22.7,22.4
 2003/07/03,15:00,23.5,84,22.5,22.2
 2003/07/03,15:15,23.5,84.5,22.7,22.2
 2003/07/03,15:30,23.6,84,22.7,22.2
 2003/07/03,15:45,23.6,84,22.7,22.2
 2003/07/03,16:00,23.6,84,22.5,22.2
 2003/07/03,16:15,23.5,81.5,22.8,22.2
 2003/07/03,16:30,23.5,80,23.1,22
 2003/07/03,16:45,23.5,80,23,22.1
 2003/07/03,17:00,23.4,79,23,22.1
 2003/07/03,17:15,23.4,79.5,23,22.1
 2003/07/03,17:30,23.4,80,23,22
 2003/07/03,17:45,23.3,80,23,22.1
 2003/07/03,18:00,23.3,80,23,22.1
 2003/07/03,18:15,23.4,81,23,22.1
 2003/07/03,18:30,23.5,81,22.9,22.1
 2003/07/03,18:45,23.4,83.5,22.6,22.1
 2003/07/03,19:00,23.3,84,22.2,22.1
 2003/07/03,19:15,23.2,84.5,22.3,22.1
 2003/07/03,19:30,23.2,85,22.2,22.3
 2003/07/03,19:45,23.5,84,22.1,22.3
 2003/07/03,20:00,23.5,84,22.2,22.3
 2003/07/03,20:15,23.5,83,22.2,22.3
 2003/07/03,20:30,23.5,83,22.4,22.3
 2003/07/03,20:45,23.5,83.5,22.4,22.4
 2003/07/03,21:00,23.6,83,22.4,22.4
 2003/07/03,21:15,23.6,83.5,22.4,22.4
 2003/07/03,21:30,23.8,83,22.3,22.3
 2003/07/03,21:45,23.9,82,22.2,22.3
 2003/07/03,22:00,24,82,22.2,22.1
 2003/07/03,22:15,24.1,80.5,22.2,22.2
 2003/07/03,22:30,24.3,80,22.2,22.2
 2003/07/03,22:45,24.3,79.5,22.2,22.2
 2003/07/03,23:00,24.3,79,22.2,22.2
 2003/07/03,23:15,24.4,79,22.2,22.1
 2003/07/03,23:30,24.2,79,22.3,22.2
 2003/07/03,23:45,24.3,79,22.5,22.2
 2003/07/04, 0:00,24.3,79,22.6,22.2
 2003/07/04, 0:15,24.2,79,22.6,22.3
 2003/07/04, 0:30,24.1,79,22.6,22.4
 2003/07/04, 0:45,24,81,22.6,22.4
 2003/07/04, 1:00,24,82,22.8,22.3
 2003/07/04, 1:15,24,83.5,23,22.4
 2003/07/04, 1:30,24,85,23,22.3
 2003/07/04, 1:45,24,85,23.1,22.4
 2003/07/04, 2:00,24,85,23.1,22.4
 2003/07/04, 2:15,24,85,23.1,22.4
 2003/07/04, 2:30,24,85,23.2,22.4
 2003/07/04, 2:45,24,85,23.2,22.4
 2003/07/04, 3:00,24,84,23.3,22.4
 2003/07/04, 3:15,24,84,23.3,22.4
 2003/07/04, 3:30,24,84,23.2,22.4
 2003/07/04, 3:45,24,84,23.2,22.4
 2003/07/04, 4:00,24,84,23.3,22.5
 2003/07/04, 4:15,24,84,23.3,22.5
 2003/07/04, 4:30,24,84,23.3,22.5
 2003/07/04, 4:45,24,83.5,23.2,22.4
 2003/07/04, 5:00,24.1,83,23.3,22.3
 2003/07/04, 5:15,24,82,23.3,22.3
 2003/07/04, 5:30,24,82,23.4,22.3
 2003/07/04, 5:45,24,81.5,23.4,22.3
 2003/07/04, 6:00,24,81,23.7,22.4
 2003/07/04, 6:15,24,81,23.8,22.4
 2003/07/04, 6:30,24.1,81,23.8,22.4
 2003/07/04, 6:45,24.2,82,23.8,22.2
 2003/07/04, 7:00,24.5,82,23.7,22.3
 2003/07/04, 7:15,24.5,79.5,23.7,22.3
 2003/07/04, 7:30,24.3,80,23.7,22.3
 2003/07/04, 7:45,24.5,79.5,23.9,22.4
 2003/07/04, 8:00,24.4,78,24.1,22.5
 2003/07/04, 8:15,24.5,76.5,24.2,22.5
 2003/07/04, 8:30,24.7,74,24.7,22.5
 2003/07/04, 8:45,24.8,72.5,24.8,22.5
 2003/07/04, 9:00,25,73,25,22.5
 2003/07/04, 9:15,25.2,68.5,25.1,22.5
 2003/07/04, 9:30,25.3,64,25.2,22.5
 2003/07/04, 9:45,25.8,60.5,25.2,22.4
 2003/07/04,10:00,25.9,61,25.2,22.4
 2003/07/04,10:15,25.9,61,25.2,22.4
 2003/07/04,10:30,26.5,59,25.4,22.4
 2003/07/04,10:45,26.2,59.5,25.6,22.5
 2003/07/04,11:00,26.2,60,25.5,22.5
 2003/07/04,11:15,26.4,59,25.5,22.5
 2003/07/04,11:30,26.3,58,25.6,22.6
 2003/07/04,11:45,26.4,57.5,25.5,22.5
 2003/07/04,12:00,26.5,56,25.7,22.5
 2003/07/04,12:15,26.5,57,25.6,22.5
 2003/07/04,12:30,27.1,56,25.7,22.5
 2003/07/04,12:45,26.7,55.5,25.7,22.5
 2003/07/04,13:00,27.2,53,25.7,22.5
 2003/07/04,13:15,26.9,53.5,25.6,22.6
 2003/07/04,13:30,26.9,54,25.6,22.6
 2003/07/04,13:45,26.8,54.5,25.5,22.6
 2003/07/04,14:00,26.6,56,25.5,22.6
 2003/07/04,14:15,26.4,56.5,25.4,22.6
 2003/07/04,14:30,26.4,57,25.2,22.7
 2003/07/04,14:45,26.4,56,25.2,22.7
 2003/07/04,15:00,26.3,55,25.2,22.7
 2003/07/04,15:15,26.4,57,25.2,22.8
 2003/07/04,15:30,26.2,57,25.2,22.8
 2003/07/04,15:45,26.1,56,25.1,22.8
 2003/07/04,16:00,25.8,56,25,22.8
 2003/07/04,16:15,25.6,57.5,24.8,22.6
 2003/07/04,16:30,25.4,59,24.6,22.6
 2003/07/04,16:45,25.5,59,24.7,22.6
 2003/07/04,17:00,25.2,59,24.6,22.6
 2003/07/04,17:15,25.1,59.5,24.4,22.6
 2003/07/04,17:30,25,60,24.3,22.5
 2003/07/04,17:45,25,60,24.1,22.5
 2003/07/04,18:00,24.8,60,24.1,22.5
 2003/07/04,18:15,24.8,61.5,23.6,22.6
 2003/07/04,18:30,24.7,62,23.5,22.6
 2003/07/04,18:45,24.5,62,23.4,22.6
 2003/07/04,19:00,24.5,62,23.3,22.6
 2003/07/04,19:15,24.4,62.5,23.3,22.5
 2003/07/04,19:30,24.2,63,23.1,22.5
 2003/07/04,19:45,24.3,62.5,23.2,22.5
 2003/07/04,20:00,24.2,63,23.1,22.4
 2003/07/04,20:15,24.1,63.5,23,22.5
 2003/07/04,20:30,24.1,63,23,22.5
 2003/07/04,20:45,24.1,64,23,22.5
 2003/07/04,21:00,24,63,22.8,22.3
 2003/07/04,21:15,23.9,64.5,22.8,22.4
 2003/07/04,21:30,23.9,64,22.7,22.4
 2003/07/04,21:45,24,63.5,22.5,22.4
 2003/07/04,22:00,23.8,65,22.3,22.4
 2003/07/04,22:15,23.8,65,22.2,22.4
 2003/07/04,22:30,23.8,64,22.2,22.4
 2003/07/04,22:45,23.8,65.5,22,22.4
 2003/07/04,23:00,23.8,67,21.9,22.1
 2003/07/04,23:15,23.9,66,21.9,22.2
 2003/07/04,23:30,23.8,67,21.4,22.2
 2003/07/04,23:45,23.8,66.5,21.5,22.2
 2003/07/05, 0:00,23.7,67,21.5,22.2
 2003/07/05, 0:15,23.7,68,21.4,22.2
 2003/07/05, 0:30,23.5,68,21.3,22.4
 2003/07/05, 0:45,23.4,69,21.4,22.4
 2003/07/05, 1:00,23.2,70,21.2,22.3
 2003/07/05, 1:15,23.1,70.5,21.1,22.3
 2003/07/05, 1:30,23,71,21,22.3
 2003/07/05, 1:45,22.9,71.5,21.1,22.3
 2003/07/05, 2:00,22.8,72,21.2,22.3
 2003/07/05, 2:15,22.8,72,20.7,22.2
 2003/07/05, 2:30,22.6,72,20.7,22.2
 2003/07/05, 2:45,22.6,72.5,21,22.2
 2003/07/05, 3:00,22.5,73,20.9,22.2
 2003/07/05, 3:15,22.5,73,21.1,22.2
 2003/07/05, 3:30,22.5,73,21.1,22.2
 2003/07/05, 3:45,22.4,74,20.8,22.2
 2003/07/05, 4:00,22.4,75,20.6,22.2
 2003/07/05, 4:15,22.3,75,20.7,22.2
 2003/07/05, 4:30,22.3,75,20.6,22.2
 2003/07/05, 4:45,22.1,75,20.7,21.9
 2003/07/05, 5:00,22.1,75,20.7,21.9
 2003/07/05, 5:15,22.1,75,20.6,21.9
 2003/07/05, 5:30,22.1,75,20.7,21.9
 2003/07/05, 5:45,22,75,20.8,21.9
 2003/07/05, 6:00,22.1,75,20.8,21.9
 2003/07/05, 6:15,22.1,75,20.9,21.9
 2003/07/05, 6:30,22.1,75,20.7,21.9
 2003/07/05, 6:45,22.1,75.5,20.7,21.8
 2003/07/05, 7:00,22.2,76,20.8,21.3
 2003/07/05, 7:15,22.2,75,20.8,21.8
 2003/07/05, 7:30,22.3,78,20.8,21.8
 2003/07/05, 7:45,22.4,76,20.9,21.8
 2003/07/05, 8:00,22.6,76,21.1,22.1
 2003/07/05, 8:15,22.4,75.5,21.4,22.1
 2003/07/05, 8:30,22.3,76,21.4,22.1
 2003/07/05, 8:45,22.1,76,21.5,22
 2003/07/05, 9:00,22.1,79,21.3,22.1
 2003/07/05, 9:15,22.3,78,21.4,22.1
 2003/07/05, 9:30,22.4,80,21.5,22.2
 2003/07/05, 9:45,22.5,79,21.6,22.2
 2003/07/05,10:00,22.3,77,21.4,22.2
 2003/07/05,10:15,22.5,78,21.5,22.2
 2003/07/05,10:30,22.6,79,21.6,22.2
 2003/07/05,10:45,22.8,81,21.7,22.2
 2003/07/05,11:00,23.2,86,21.8,22.2
 2003/07/05,11:15,23.4,87.5,21.8,22.2
 2003/07/05,11:30,23.3,84,21.9,22.2
 2003/07/05,11:45,23.1,79.5,22,22.2
 2003/07/05,12:00,23.1,78,22.2,22.2
 2003/07/05,12:15,23.2,78.5,22.2,22.2
 2003/07/05,12:30,23.4,79,22.4,22.2
 2003/07/05,12:45,23.2,80.5,22.5,22.2
 2003/07/05,13:00,23.4,80,22.6,22.3
 2003/07/05,13:15,23.5,79,22.6,22.3
 2003/07/05,13:30,23.6,79,22.7,22.3
 2003/07/05,13:45,23.8,79,22.9,22.3
 2003/07/05,14:00,24,79,23,22.3
 2003/07/05,14:15,24.1,78,23.1,22.3
 2003/07/05,14:30,24.2,78,23.1,22.3
 2003/07/05,14:45,24.3,78,23.1,22.2
 2003/07/05,15:00,24.3,78,23.2,22.2
 2003/07/05,15:15,24.3,78,23.3,22.2
 2003/07/05,15:30,24.2,79,23.4,22.3
 2003/07/05,15:45,24.2,78.5,23.5,22.3
 2003/07/05,16:00,24.3,79,24.1,22.3
 2003/07/05,16:15,24.4,78,24.1,22.3
 2003/07/05,16:30,24.7,80,23.8,22.3
 2003/07/05,16:45,24.5,79.5,23.7,22.3
 2003/07/05,17:00,24.5,79,23.7,22.4
 2003/07/05,17:15,24.5,79,23.6,22.4
 2003/07/05,17:30,24.5,79,23.5,22.4
 2003/07/05,17:45,24.5,79,23.4,22.4
 2003/07/05,18:00,24.5,79,23.4,22.4
 2003/07/05,18:15,24.5,79,23.4,22.4
 2003/07/05,18:30,24.4,79,23.4,22.3
 2003/07/05,18:45,24.4,79.5,23.4,22.3
 2003/07/05,19:00,24.2,80,23.3,22.5
 2003/07/05,19:15,24.2,80,23,22.5
 2003/07/05,19:30,24.2,81,23.1,22.3
 2003/07/05,19:45,24.1,81,22.9,22.4
 2003/07/05,20:00,24,81,22.7,22.4
 2003/07/05,20:15,24.2,80,22.5,22.4
 2003/07/05,20:30,24.2,80,22.2,22.4
 2003/07/05,20:45,24.1,79,22.1,22.6
 2003/07/05,21:00,24.2,79,22,22.5
 2003/07/05,21:15,24.3,78,22,22.6
 2003/07/05,21:30,24.3,78,22.1,22.6
 2003/07/05,21:45,24.3,78,22.1,22.6
 2003/07/05,22:00,24.3,78,22,22.6
 2003/07/05,22:15,24.3,78,22,22.6
 2003/07/05,22:30,24.3,78,22.1,22.2
 2003/07/05,22:45,24.3,78,22,22.3
 2003/07/05,23:00,24.4,78,22.2,22.3
 2003/07/05,23:15,24.4,78,22.4,22.3
 2003/07/05,23:30,24.3,78,22.5,22.6
 2003/07/05,23:45,24,79.5,22.5,22.6
 2003/07/06, 0:00,23.9,81,22.5,22.6
 2003/07/06, 0:15,23.8,81,22.5,22.6
 2003/07/06, 0:30,23.7,81,22.5,22.6
 2003/07/06, 0:45,23.7,81.5,22.5,22.6
 2003/07/06, 1:00,23.6,82,22.5,22.6
 2003/07/06, 1:15,23.6,82,22.5,22.6
 2003/07/06, 1:30,23.6,82,22.5,22.6
 2003/07/06, 1:45,23.5,82.5,22.4,22.6
 2003/07/06, 2:00,23.5,83,22.5,22.6
 2003/07/06, 2:15,23.5,83,22.5,22.6
 2003/07/06, 2:30,23.4,83,22.5,22.6
 2003/07/06, 2:45,23.4,83.5,22.4,22.6
 2003/07/06, 3:00,23.3,84,22.3,22.6
 2003/07/06, 3:15,23.3,84,22.4,22.6
 2003/07/06, 3:30,23.2,84,22.4,22.6
 2003/07/06, 3:45,23.2,84.5,22.4,22.6
 2003/07/06, 4:00,23.2,84,22.4,22.6
 2003/07/06, 4:15,23.2,84.5,22.4,22.6
 2003/07/06, 4:30,23.2,85,22.4,22.6
 2003/07/06, 4:45,23.2,85,22.4,22.6
 2003/07/06, 5:00,23.3,85,22.3,21.9
 2003/07/06, 5:15,23.3,84.5,22.4,22.2
 2003/07/06, 5:30,23.3,84,22.3,22.2
 2003/07/06, 5:45,23.3,84,22.4,22.1
 2003/07/06, 6:00,23.2,85,22.5,22.1
 2003/07/06, 6:15,23.2,85,22.4,22.2
 2003/07/06, 6:30,23.2,85,22.4,22.2
 2003/07/06, 6:45,23.2,85.5,22.5,22.2
 2003/07/06, 7:00,23.2,85,22.4,22.2
 2003/07/06, 7:15,23.4,85.5,22.5,22.2
 2003/07/06, 7:30,23.6,87,22.4,22.2
 2003/07/06, 7:45,23.5,87,22.5,22.2
 2003/07/06, 8:00,23.5,87,22.5,22.3
 2003/07/06, 8:15,23.3,87,22.5,22.3
 2003/07/06, 8:30,23.2,87,22.4,22.3
 2003/07/06, 8:45,23.2,87,22.5,22.3
 2003/07/06, 9:00,23.3,88,22.6,22.3
 2003/07/06, 9:15,23.5,87,22.5,22.4
 2003/07/06, 9:30,23.5,87,22.4,22.4
 2003/07/06, 9:45,23.6,86.5,22.5,22.2
 2003/07/06,10:00,23.7,86,22.6,22.2
 2003/07/06,10:15,24.1,88,22.7,22.2
 2003/07/06,10:30,24,87,22.8,22.2
 2003/07/06,10:45,24.1,85.5,23,22.4
 2003/07/06,11:00,24.4,86,23.1,22.5
 2003/07/06,11:15,24.7,87,23.3,22.5
 2003/07/06,11:30,25,86,23.5,22.5
 2003/07/06,11:45,25,83.5,23.6,22.5
 2003/07/06,12:00,24.9,83,23.8,22.6
 2003/07/06,12:15,25,83,24,22.6
 2003/07/06,12:30,25.2,83,24.1,22.3
 2003/07/06,12:45,25.4,83,24.4,22.4
 2003/07/06,13:00,25.5,82,24.4,22.4
 2003/07/06,13:15,25.5,82,24.5,22.4
 2003/07/06,13:30,25.6,81,24.5,22.4
 2003/07/06,13:45,25.4,81,24.5,22.4
 2003/07/06,14:00,25.4,81,24.5,22.4
 2003/07/06,14:15,25.4,81.5,24.5,22.5
 2003/07/06,14:30,25.4,82,24.7,22.5
 2003/07/06,14:45,25.5,82,24.7,22.5
 2003/07/06,15:00,25.5,82,24.7,22.5
 2003/07/06,15:15,25.6,82,24.8,22.5
 2003/07/06,15:30,25.7,81,24.8,22.5
 2003/07/06,15:45,25.9,80.5,24.8,22.6
 2003/07/06,16:00,25.9,80,24.8,22.6
 2003/07/06,16:15,25.9,80,24.9,22.6
 2003/07/06,16:30,25.7,80,24.9,22.6
 2003/07/06,16:45,25.8,80,24.7,22.8
 2003/07/06,17:00,25.7,80,24.7,22.7
 2003/07/06,17:15,25.6,82,24.6,22.7
 2003/07/06,17:30,25.6,82,24.5,22.7
 2003/07/06,17:45,25.4,83,23.8,22.7
 2003/07/06,18:00,25.4,83,24,22.7
 2003/07/06,18:15,25.5,82.5,24,22.7
 2003/07/06,18:30,25.4,83,24,22.7
 2003/07/06,18:45,25.5,82.5,23.9,22.6
 2003/07/06,19:00,25.6,82,23.7,22.6
 2003/07/06,19:15,25.6,81.5,23.8,22.6
 2003/07/06,19:30,25.6,81,23.7,22.6
 2003/07/06,19:45,25.6,81,23.5,22.6
 2003/07/06,20:00,25.6,81,23.6,22.4
 2003/07/06,20:15,25.3,82,23.5,22.5
 2003/07/06,20:30,25.6,81,23.7,22.6
 2003/07/06,20:45,25.6,81,23.7,22.6
 2003/07/06,21:00,25.6,80,23.8,22.7
 2003/07/06,21:15,25.6,79.5,23.6,22.7
 2003/07/06,21:30,25.6,79,23.8,22.6
 2003/07/06,21:45,25.5,79,23.6,22.6
 2003/07/06,22:00,25.5,79,23.7,22.6
 2003/07/06,22:15,25.5,79,23.5,22.6
 2003/07/06,22:30,25.4,80,23.5,22.7
 2003/07/06,22:45,25.5,79,23.5,22.7
 2003/07/06,23:00,25.4,80,23.5,22.7
 2003/07/06,23:15,25.4,79.5,23.5,22.7
 2003/07/06,23:30,25.7,78,23.3,22.7
 2003/07/06,23:45,25.6,78.5,23.1,22.7
 2003/07/07, 0:00,25.6,79,23.1,22.4
 2003/07/07, 0:15,25.5,79,23.1,22.5
 2003/07/07, 0:30,25.4,80,23.1,22.5
 2003/07/07, 0:45,25.1,80.5,23.5,22.5
 2003/07/07, 1:00,25,81,23.5,22.6
 2003/07/07, 1:15,24.9,81.5,23.5,22.6
 2003/07/07, 1:30,24.7,82,23.5,22.6
 2003/07/07, 1:45,24.7,82,23.5,22.6
 2003/07/07, 2:00,24.6,83,23.4,22.4
 2003/07/07, 2:15,24.5,83,23.4,22.4
 2003/07/07, 2:30,24.5,83,23.4,22.4
 2003/07/07, 2:45,24.5,83,23.4,22.4
 2003/07/07, 3:00,24.4,83,23.3,22.4
 2003/07/07, 3:15,24.4,83,23.3,22.5
 2003/07/07, 3:30,24.4,83,23.3,22.5
 2003/07/07, 3:45,24.3,83.5,23.3,22.5
 2003/07/07, 4:00,24.3,83,23.2,22.5
 2003/07/07, 4:15,24.2,84,23.2,22.5
 2003/07/07, 4:30,24.2,84,23.2,22.5
 2003/07/07, 4:45,24.1,84,23.2,22.5
 2003/07/07, 5:00,24.1,84,23.2,22.5
 2003/07/07, 5:15,24.1,84.5,23.1,22.5
 2003/07/07, 5:30,24,85,23.2,22.6
 2003/07/07, 5:45,24.1,85,23.2,22.6
 2003/07/07, 6:00,24.1,85,23.2,22.6
 2003/07/07, 6:15,24.1,85,23.4,22.6
 2003/07/07, 6:30,24.2,84,23.4,22.6
 2003/07/07, 6:45,24.5,87,23.5,22.6
 2003/07/07, 7:00,24.7,87,23.7,22.6
 2003/07/07, 7:15,24.5,85.5,23.7,22.5
 2003/07/07, 7:30,24.7,87,23.7,22.4
 2003/07/07, 7:45,24.6,86,23.8,22.4
 2003/07/07, 8:00,24.6,87,23.7,22.5
 2003/07/07, 8:15,24.5,87,23.6,22.5
 2003/07/07, 8:30,24.5,87,23.5,22.5
 2003/07/07, 8:45,24.5,87,23.6,22.5
 2003/07/07, 9:00,24.5,87,23.5,22.5
 2003/07/07, 9:15,24.5,87,23.5,22.5
 2003/07/07, 9:30,24.5,87,23.6,22.6
 2003/07/07, 9:45,24.6,86.5,23.8,22.6
 2003/07/07,10:00,24.9,89,23.8,22.6
 2003/07/07,10:15,25,87,23.9,22.6
 2003/07/07,10:30,25.2,87,24,22.6
 2003/07/07,10:45,25.2,87.5,24,22.6
 2003/07/07,11:00,25.3,87,24.2,22.7
 2003/07/07,11:15,25.7,89,24.4,22.7
 2003/07/07,11:30,25.9,88,24.7,22.7
 2003/07/07,11:45,26,86,24.9,22.7
 2003/07/07,12:00,26.1,84,25.2,22.8
 2003/07/07,12:15,26.3,83,25.1,22.8
 2003/07/07,12:30,26.4,81,25.2,22.8
 2003/07/07,12:45,27,79,25.5,22.8
 2003/07/07,13:00,27.1,77,25.7,22.9
 2003/07/07,13:15,27.4,74,25.9,22.8
 2003/07/07,13:30,27.6,72,26,22.7
 2003/07/07,13:45,27.9,71,26.2,22.7
 2003/07/07,14:00,28.3,70,26.4,22.7
 2003/07/07,14:15,28.4,69,26.5,22.8
 2003/07/07,14:30,28.7,68,26.2,22.8
 2003/07/07,14:45,28.8,67,26.2,22.8
 2003/07/07,15:00,28.7,67,26.2,23.1
 2003/07/07,15:15,28.6,67.5,26.3,22.8
 2003/07/07,15:30,28.6,68,26.4,22.7
 2003/07/07,15:45,28.8,66,26.4,22.7
 2003/07/07,16:00,28.9,65,26.6,22.8
 2003/07/07,16:15,28.9,65,26.4,22.8
 2003/07/07,16:30,28.9,65,26.5,22.8
 2003/07/07,16:45,28.8,65,26.4,22.9
 2003/07/07,17:00,28.9,65,26.4,22.9
 2003/07/07,17:15,28.9,65,26.4,23
 2003/07/07,17:30,28.8,65,26.9,23
 2003/07/07,17:45,28.6,66,26.9,22.9